TimeCST,TemperatureF,Dew PointF,Humidity,Sea Level PressureIn,VisibilityMPH,Wind Direction,Wind SpeedMPH,Gust SpeedMPH,PrecipitationIn,Events,Conditions,WindDirDegrees,DateUTC
12:15 AM,32.0,32.0,100,30.10,4.0,Calm,Calm,-,N/A,,Clear,0,2012-11-20 06:15:00
12:35 AM,32.0,30.2,93,30.09,1.0,Calm,Calm,-,N/A,,Mostly Cloudy,0,2012-11-20 06:35:00
12:55 AM,32.0,32.0,100,30.09,0.5,Calm,Calm,-,N/A,Fog,Light Freezing Fog,0,2012-11-20 06:55:00
1:15 AM,32.0,32.0,100,30.09,5.0,Calm,Calm,-,N/A,,Mostly Cloudy,0,2012-11-20 07:15:00
1:35 AM,30.2,30.2,100,30.10,3.0,Calm,Calm,-,N/A,,Mostly Cloudy,0,2012-11-20 07:35:00
1:55 AM,32.0,32.0,100,30.11,0.2,NW,3.5,-,N/A,Fog,Light Freezing Fog,310,2012-11-20 07:55:00
2:15 AM,32.0,32.0,100,30.11,0.2,Calm,Calm,-,N/A,Fog,Light Freezing Fog,0,2012-11-20 08:15:00
2:35 AM,32.0,32.0,100,30.12,0.5,NW,3.5,-,N/A,Fog,Light Freezing Fog,310,2012-11-20 08:35:00
6:15 AM,28.4,28.4,100,30.16,1.2,Calm,Calm,-,N/A,,Scattered Clouds,0,2012-11-20 12:15:00
6:35 AM,26.6,26.6,100,30.16,0.5,Calm,Calm,-,N/A,Fog,Light Freezing Fog,0,2012-11-20 12:35:00
6:55 AM,28.4,28.4,100,30.16,0.5,Calm,Calm,-,N/A,Fog,Light Freezing Fog,0,2012-11-20 12:55:00
7:15 AM,24.8,24.8,100,30.16,0.2,Calm,Calm,-,N/A,Fog,Light Freezing Fog,0,2012-11-20 13:15:00
7:35 AM,24.8,24.8,100,30.17,0.2,Calm,Calm,-,N/A,Fog,Light Freezing Fog,0,2012-11-20 13:35:00
7:55 AM,24.8,24.8,100,30.18,0.2,Calm,Calm,-,N/A,Fog,Light Freezing Fog,0,2012-11-20 13:55:00
8:15 AM,26.6,26.6,100,30.19,0.2,Calm,Calm,-,N/A,Fog,Light Freezing Fog,0,2012-11-20 14:15:00
8:35 AM,28.4,28.4,100,30.19,0.2,Calm,Calm,-,N/A,Fog,Light Freezing Fog,0,2012-11-20 14:35:00
8:55 AM,30.2,28.4,93,30.19,0.2,Calm,Calm,-,N/A,Fog,Light Freezing Fog,0,2012-11-20 14:55:00
9:15 AM,30.2,30.2,100,30.18,0.2,Calm,Calm,-,N/A,Fog,Light Freezing Fog,0,2012-11-20 15:15:00
9:35 AM,32.0,32.0,100,30.18,0.2,Calm,Calm,-,N/A,Fog,Fog,0,2012-11-20 15:35:00
9:55 AM,32.0,32.0,100,30.19,0.2,Calm,Calm,-,N/A,Fog,Fog,0,2012-11-20 15:55:00
10:15 AM,32.0,32.0,100,30.19,0.2,Calm,Calm,-,N/A,Fog,Fog,0,2012-11-20 16:15:00
10:35 AM,32.0,32.0,100,30.18,0.2,Calm,Calm,-,N/A,Fog,Fog,0,2012-11-20 16:35:00
10:55 AM,33.8,33.8,100,30.19,0.2,Calm,Calm,-,N/A,Fog,Fog,0,2012-11-20 16:55:00
11:15 AM,33.8,33.8,100,30.19,0.2,Calm,Calm,-,N/A,Fog,Fog,0,2012-11-20 17:15:00
11:35 AM,35.6,35.6,100,30.18,1.8,Calm,Calm,-,N/A,,Overcast,0,2012-11-20 17:35:00
11:55 AM,37.4,37.4,100,30.17,5.0,Calm,Calm,-,N/A,,Scattered Clouds,0,2012-11-20 17:55:00
12:15 PM,41.0,39.2,93,30.16,10.0,Calm,Calm,-,N/A,,Clear,0,2012-11-20 18:15:00
12:55 PM,46.4,35.6,66,30.17,10.0,Calm,Calm,-,N/A,,Clear,0,2012-11-20 18:55:00
1:15 PM,46.4,35.6,66,30.16,10.0,North,3.5,-,N/A,,Clear,350,2012-11-20 19:15:00
1:35 PM,48.2,35.6,62,30.15,10.0,Calm,Calm,-,N/A,,Clear,0,2012-11-20 19:35:00
1:55 PM,48.2,35.6,62,30.15,10.0,Calm,Calm,-,N/A,,Clear,0,2012-11-20 19:55:00
2:15 PM,50.0,35.6,58,30.14,10.0,Calm,Calm,-,N/A,,Clear,0,2012-11-20 20:15:00
2:35 PM,50.0,33.8,54,30.14,10.0,WNW,3.5,-,N/A,,Clear,300,2012-11-20 20:35:00
2:55 PM,50.0,33.8,54,30.14,10.0,Calm,Calm,-,N/A,,Clear,0,2012-11-20 20:55:00
3:15 PM,50.0,33.8,54,30.14,10.0,Calm,Calm,-,N/A,,Clear,0,2012-11-20 21:15:00
3:35 PM,50.0,33.8,54,30.13,10.0,Calm,Calm,-,N/A,,Clear,0,2012-11-20 21:35:00
3:55 PM,48.2,33.8,58,30.13,10.0,Calm,Calm,-,N/A,,Clear,0,2012-11-20 21:55:00
4:15 PM,46.4,33.8,62,30.13,10.0,Calm,Calm,-,N/A,,Clear,0,2012-11-20 22:15:00
4:35 PM,42.8,32.0,66,30.13,10.0,Calm,Calm,-,N/A,,Clear,0,2012-11-20 22:35:00
4:55 PM,37.4,32.0,81,30.13,10.0,Calm,Calm,-,N/A,,Clear,0,2012-11-20 22:55:00
5:15 PM,35.6,32.0,87,30.14,10.0,SSE,3.5,-,N/A,,Clear,150,2012-11-20 23:15:00
5:35 PM,32.0,32.0,100,30.13,10.0,ESE,4.6,-,N/A,,Clear,120,2012-11-20 23:35:00
5:55 PM,33.8,32.0,93,30.14,10.0,Calm,Calm,-,N/A,,Clear,0,2012-11-20 23:55:00
6:15 PM,32.0,30.2,93,30.14,10.0,ESE,4.6,-,N/A,,Clear,110,2012-11-21 00:15:00
6:35 PM,32.0,30.2,93,30.13,10.0,SE,3.5,-,N/A,,Clear,130,2012-11-21 00:35:00
6:55 PM,30.2,28.4,93,30.12,10.0,SSE,3.5,-,N/A,,Clear,160,2012-11-21 00:55:00
7:15 PM,30.2,28.4,93,30.12,10.0,Calm,Calm,-,N/A,,Clear,0,2012-11-21 01:15:00
7:35 PM,30.2,28.4,93,30.12,10.0,Calm,Calm,-,N/A,,Clear,0,2012-11-21 01:35:00
7:55 PM,32.0,30.2,93,30.12,10.0,SE,4.6,-,N/A,,Clear,140,2012-11-21 01:55:00
8:15 PM,32.0,30.2,93,30.12,10.0,SE,4.6,-,N/A,,Clear,140,2012-11-21 02:15:00
8:35 PM,32.0,30.2,93,30.11,10.0,SE,3.5,-,N/A,,Clear,140,2012-11-21 02:35:00
8:55 PM,32.0,30.2,93,30.10,10.0,SE,3.5,-,N/A,,Clear,140,2012-11-21 02:55:00
9:15 PM,32.0,30.2,93,30.10,10.0,Calm,Calm,-,N/A,,Clear,0,2012-11-21 03:15:00
9:35 PM,33.8,32.0,93,30.10,10.0,South,4.6,-,N/A,,Clear,190,2012-11-21 03:35:00
9:55 PM,37.4,32.0,81,30.10,10.0,SSE,3.5,-,N/A,,Clear,160,2012-11-21 03:55:00
10:15 PM,37.4,33.8,87,30.10,10.0,SSE,8.1,-,N/A,,Clear,160,2012-11-21 04:15:00
10:35 PM,35.6,32.0,87,30.09,10.0,SSE,5.8,-,N/A,,Clear,160,2012-11-21 04:35:00
10:55 PM,35.6,32.0,87,30.09,10.0,SSE,5.8,-,N/A,,Clear,160,2012-11-21 04:55:00
11:15 PM,37.4,33.8,87,30.09,10.0,SSE,5.8,-,N/A,,Clear,160,2012-11-21 05:15:00
11:35 PM,37.4,32.0,81,30.09,10.0,SSE,4.6,-,N/A,,Clear,160,2012-11-21 05:35:00
11:55 PM,35.6,32.0,87,30.08,10.0,SSE,5.8,-,N/A,,Clear,150,2012-11-21 05:55:00